TimeEDT,TemperatureF,Dew PointF,Humidity,Sea Level PressureIn,VisibilityMPH,Wind Direction,Wind SpeedMPH,Gust SpeedMPH,PrecipitationIn,Events,Conditions,WindDirDegrees,DateUTC
12:15 AM,69.8,53.6,56,29.75,10.0,SW,15.0,23.0,N/A,,Unknown,230,2012-10-15 04:15:00
12:35 AM,69.8,53.6,56,29.75,10.0,WSW,8.1,19.6,N/A,,Unknown,240,2012-10-15 04:35:00
12:55 AM,69.8,55.4,60,29.74,10.0,SW,10.4,19.6,N/A,,Unknown,230,2012-10-15 04:55:00
1:15 AM,69.8,55.4,60,29.74,10.0,SW,15.0,23.0,N/A,,Unknown,230,2012-10-15 05:15:00
1:35 AM,69.8,53.6,56,29.74,10.0,WSW,17.3,27.6,N/A,,Unknown,240,2012-10-15 05:35:00
1:55 AM,68.0,53.6,60,29.73,10.0,SW,13.8,21.9,N/A,,Unknown,230,2012-10-15 05:55:00
2:15 AM,68.0,55.4,64,29.73,10.0,SW,9.2,-,N/A,,Unknown,230,2012-10-15 06:15:00
2:35 AM,68.0,55.4,64,29.72,10.0,SW,13.8,23.0,N/A,,Unknown,230,2012-10-15 06:35:00
2:55 AM,68.0,55.4,64,29.71,10.0,WSW,12.7,20.7,N/A,,Unknown,240,2012-10-15 06:55:00
3:15 AM,66.2,57.2,73,29.70,10.0,WSW,11.5,-,N/A,,Unknown,250,2012-10-15 07:15:00
3:35 AM,66.2,55.4,68,29.70,10.0,SW,10.4,-,N/A,,Unknown,230,2012-10-15 07:35:00
3:55 AM,66.2,57.2,73,29.69,10.0,WSW,12.7,18.4,N/A,,Unknown,240,2012-10-15 07:55:00
4:15 AM,66.2,57.2,73,29.68,10.0,WSW,9.2,20.7,N/A,,Unknown,250,2012-10-15 08:15:00
4:35 AM,62.6,60.8,94,29.69,10.0,WNW,9.2,-,N/A,,Unknown,300,2012-10-15 08:35:00
4:55 AM,60.8,60.8,100,29.70,10.0,WSW,11.5,17.3,0.01,,Unknown,250,2012-10-15 08:55:00
5:15 AM,60.8,60.8,100,29.70,10.0,WSW,9.2,-,N/A,,Unknown,250,2012-10-15 09:15:00
5:35 AM,60.8,60.8,100,29.71,10.0,WSW,13.8,19.6,0.01,,Unknown,250,2012-10-15 09:35:00
5:55 AM,60.8,60.8,100,29.72,10.0,WSW,10.4,-,0.01,,Unknown,250,2012-10-15 09:55:00
6:15 AM,60.8,60.8,100,29.73,10.0,West,11.5,18.4,N/A,,Unknown,260,2012-10-15 10:15:00
6:35 AM,60.8,60.8,100,29.73,10.0,West,12.7,18.4,N/A,,Unknown,280,2012-10-15 10:35:00
6:55 AM,59.0,59.0,100,29.74,10.0,West,8.1,-,N/A,,Unknown,270,2012-10-15 10:55:00
7:15 AM,59.0,57.2,94,29.74,10.0,West,11.5,-,N/A,,Unknown,270,2012-10-15 11:15:00
7:35 AM,57.2,57.2,100,29.74,10.0,West,8.1,-,N/A,,Unknown,260,2012-10-15 11:35:00
7:55 AM,57.2,57.2,100,29.75,10.0,West,10.4,-,N/A,,Unknown,270,2012-10-15 11:55:00
8:15 AM,57.2,55.4,94,29.76,10.0,WNW,9.2,19.6,N/A,,Unknown,290,2012-10-15 12:15:00
8:35 AM,57.2,55.4,94,29.77,10.0,WNW,11.5,18.4,N/A,,Unknown,290,2012-10-15 12:35:00
8:55 AM,55.4,51.8,88,29.78,10.0,WNW,11.5,18.4,N/A,,Unknown,300,2012-10-15 12:55:00
9:15 AM,55.4,51.8,88,29.78,10.0,WNW,8.1,-,N/A,,Unknown,290,2012-10-15 13:15:00
9:35 AM,55.4,51.8,88,29.79,10.0,WNW,9.2,17.3,N/A,,Unknown,290,2012-10-15 13:35:00
9:55 AM,55.4,51.8,88,29.79,10.0,WNW,6.9,-,N/A,,Unknown,300,2012-10-15 13:55:00
10:15 AM,55.4,51.8,88,29.79,10.0,West,10.4,-,N/A,,Unknown,270,2012-10-15 14:15:00
10:35 AM,55.4,51.8,88,29.80,10.0,West,12.7,-,N/A,,Unknown,280,2012-10-15 14:35:00
10:55 AM,53.6,51.8,94,29.81,10.0,WNW,3.5,-,N/A,,Unknown,300,2012-10-15 14:55:00
11:15 AM,53.6,51.8,94,29.81,10.0,WNW,9.2,-,N/A,,Unknown,290,2012-10-15 15:15:00
11:35 AM,53.6,50.0,88,29.81,10.0,West,10.4,-,N/A,,Unknown,260,2012-10-15 15:35:00
11:55 AM,53.6,48.2,82,29.81,10.0,West,10.4,-,N/A,,Unknown,270,2012-10-15 15:55:00
12:15 PM,55.4,50.0,82,29.80,10.0,West,8.1,-,N/A,,Unknown,280,2012-10-15 16:15:00
12:35 PM,55.4,48.2,77,29.79,10.0,West,8.1,-,N/A,,Unknown,270,2012-10-15 16:35:00
12:55 PM,57.2,51.8,82,29.78,10.0,WSW,13.8,-,N/A,,Unknown,250,2012-10-15 16:55:00
1:15 PM,57.2,50.0,77,29.77,10.0,West,11.5,-,N/A,,Unknown,270,2012-10-15 17:15:00
1:35 PM,57.2,50.0,77,29.77,10.0,West,11.5,16.1,N/A,,Unknown,270,2012-10-15 17:35:00
1:55 PM,57.2,50.0,77,29.77,10.0,West,13.8,18.4,N/A,,Unknown,270,2012-10-15 17:55:00
2:15 PM,57.2,50.0,77,29.76,10.0,West,11.5,-,N/A,,Unknown,280,2012-10-15 18:15:00
2:35 PM,57.2,50.0,77,29.76,10.0,West,16.1,21.9,N/A,,Unknown,270,2012-10-15 18:35:00
2:55 PM,59.0,50.0,72,29.75,10.0,West,9.2,17.3,N/A,,Unknown,280,2012-10-15 18:55:00
3:15 PM,57.2,48.2,72,29.75,10.0,WSW,11.5,-,N/A,,Unknown,250,2012-10-15 19:15:00
3:35 PM,57.2,48.2,72,29.75,10.0,West,12.7,-,N/A,,Unknown,270,2012-10-15 19:35:00
3:55 PM,59.0,48.2,67,29.74,10.0,West,13.8,18.4,N/A,,Unknown,270,2012-10-15 19:55:00
4:15 PM,57.2,48.2,72,29.75,10.0,WNW,11.5,17.3,N/A,,Unknown,290,2012-10-15 20:15:00
4:35 PM,55.4,50.0,82,29.76,10.0,NW,8.1,19.6,N/A,,Unknown,320,2012-10-15 20:35:00
4:55 PM,53.6,51.8,94,29.77,10.0,WNW,9.2,-,N/A,,Unknown,300,2012-10-15 20:55:00
5:15 PM,55.4,51.8,88,29.77,10.0,WNW,6.9,-,N/A,,Unknown,300,2012-10-15 21:15:00
5:35 PM,53.6,50.0,88,29.77,10.0,WNW,5.8,-,N/A,,Unknown,300,2012-10-15 21:35:00
5:55 PM,51.8,51.8,100,29.79,3.0,WNW,12.7,20.7,0.02,,Unknown,300,2012-10-15 21:55:00
6:15 PM,50.0,50.0,100,29.80,10.0,NW,6.9,-,0.01,,Unknown,310,2012-10-15 22:15:00
6:35 PM,50.0,50.0,100,29.81,10.0,NW,5.8,-,0.01,,Unknown,310,2012-10-15 22:35:00
6:55 PM,50.0,50.0,100,29.82,10.0,WNW,5.8,-,0.01,,Unknown,300,2012-10-15 22:55:00
7:15 PM,48.2,48.2,100,29.82,7.0,NW,5.8,-,N/A,,Unknown,310,2012-10-15 23:15:00
7:35 PM,48.2,48.2,100,29.83,4.0,WNW,4.6,-,0.02,,Unknown,290,2012-10-15 23:35:00
7:55 PM,48.2,48.2,100,29.83,10.0,WNW,9.2,-,0.03,,Unknown,290,2012-10-15 23:55:00
8:15 PM,48.2,48.2,100,29.84,10.0,WNW,6.9,-,0.01,,Unknown,300,2012-10-16 00:15:00
8:35 PM,48.2,48.2,100,29.84,10.0,NW,5.8,-,0.01,,Unknown,310,2012-10-16 00:35:00
8:55 PM,46.4,46.4,100,29.84,10.0,WNW,5.8,-,0.01,,Unknown,290,2012-10-16 00:55:00
9:15 PM,46.4,46.4,100,29.85,10.0,WNW,5.8,-,N/A,,Unknown,290,2012-10-16 01:15:00
9:35 PM,46.4,46.4,100,29.86,10.0,WNW,5.8,-,N/A,,Unknown,290,2012-10-16 01:35:00
9:55 PM,46.4,46.4,100,29.86,10.0,WNW,5.8,-,N/A,,Unknown,290,2012-10-16 01:55:00
10:15 PM,46.4,46.4,100,29.87,10.0,WNW,6.9,-,N/A,,Unknown,300,2012-10-16 02:15:00
10:35 PM,46.4,46.4,100,29.87,10.0,WNW,8.1,-,N/A,,Unknown,300,2012-10-16 02:35:00
10:55 PM,46.4,46.4,100,29.87,10.0,WNW,5.8,-,N/A,,Unknown,300,2012-10-16 02:55:00
11:15 PM,46.4,46.4,100,29.87,10.0,WNW,4.6,-,N/A,,Unknown,300,2012-10-16 03:15:00
11:35 PM,46.4,46.4,100,29.87,10.0,WNW,4.6,-,N/A,,Unknown,290,2012-10-16 03:35:00
11:55 PM,46.4,46.4,100,29.87,10.0,WNW,5.8,-,N/A,,Unknown,290,2012-10-16 03:55:00